Location: Tucson
(32.2217°N, 110.9265°W)
Time: 18:07:59
(UTC-07:00)

Transit 2A Rocket - Pass Details

Date: 12 August 2022
Orbit: 593 x 908 km, 66.7° (Epoch: 26 September)

Event Time Altitude Azimuth Distance (km) Brightness Sun altitude
Rises 03:44:34 0° 339° (NNW) 2,882 8.2 -23.6°
Reaches altitude 10° 03:46:48 10° 343° (NNW) 2,003 7.4 -23.2°
Maximum altitude 03:51:14 58° 63° (ENE) 771 5.3 -22.4°
Drops below altitude 10° 03:56:01 10° 142° (SE) 2,157 7.4 -21.6°
Sets 03:58:30 0° 147° (SSE) 3,126 8.2 -21.2°
